[[[{"header":{"parameterUnit":"kt","parameterCategory":2,"dx":1,"dy":1,"la1":30.253999710083008,"la2":30.299108505249023,"lo1":-89.0895004272461,"lo2":-89.04439544677734,"nx":28,"ny":28,"refTime":"2022-10-01T21:00:00:Z","depth":0,"parameterNumber":1,"parameterNumberName":"U-component_of_WINDS"},"data":[-0.4438,-0.4481,-0.4467,-0.4509,-0.4502,-0.4529,-0.4534,-0.4538,-0.4537,-0.4566,-0.458,-0.4569,-0.4562,-0.4575,-0.4589,-0.4584,-0.4593,-0.4619,-0.4609,-0.4504,-0.4489,-0.4474,-0.4465,-0.462,-0.462,-0.472,-0.4721,-0.4722,-0.4364,-0.4359,-0.4376,-0.4384,-0.4399,-0.4365,-0.4367,-0.4382,-0.4407,-0.4405,-0.4418,-0.4442,-0.4459,-0.4442,-0.4456,-0.4476,-0.4462,-0.4481,-0.4481,-0.4482,-0.4368,-0.4358,-0.4493,-0.4493,-0.4493,-0.4493,-0.4492,-0.4492,-0.4227,-0.4253,-0.4249,-0.4267,-0.4267,-0.4271,-0.4293,-0.4279,-0.4296,-0.4308,-0.4286,-0.4313,-0.4309,-0.4317,-0.4316,-0.4336,-0.4312,-0.4329,-0.4334,-0.434,-0.4349,-0.4212,-0.4337,-0.4336,-0.4336,-0.4335,-0.4335,0,-0.4123,-0.4109,-0.4124,-0.4136,-0.4148,-0.4155,-0.4159,-0.4172,-0.4136,-0.4151,-0.4171,-0.4181,-0.4198,-0.4216,-0.4224,-0.4219,-0.4188,-0.4181,-0.4193,-0.4208,-0.4219,-0.4217,-0.4037,-0.4178,-0.4177,-0.4176,-0.4175,-0.4175,-0.3986,-0.4017,-0.4005,-0.4018,-0.4016,-0.4037,-0.4046,-0.4012,-0.4024,-0.4023,-0.4047,-0.4063,-0.4075,-0.4109,-0.4092,-0.4105,-0.4091,-0.4147,-0.4093,-0.4104,-0.4096,-0.4096,-0.4101,-0.416,-0.4161,-0.4163,-0.4164,0,-0.3911,-0.3887,-0.3929,-0.3914,-0.3911,-0.3945,-0.3931,-0.3955,-0.3938,-0.3968,-0.3973,-0.3947,-0.3967,-0.3941,-0.3958,-0.3944,-0.4001,-0.3983,-0.4003,-0.3999,-0.405,-0.4047,-0.421,-0.4231,-0.4066,-0.4068,-0.4069,0,-0.3787,-0.3828,-0.379,-0.3816,-0.386,-0.3825,-0.387,-0.386,-0.3856,-0.3879,-0.3837,-0.386,-0.3822,-0.3841,-0.3819,-0.3861,-0.3862,-0.3856,-0.385,-0.3862,-0.3863,-0.3871,-0.3865,-0.3832,-0.3831,-0.383,-0.383,0,-0.3676,-0.3702,-0.3743,-0.3746,-0.3733,-0.3753,-0.3749,-0.3743,-0.3753,-0.376,-0.3766,-0.3776,-0.3783,-0.3791,-0.3765,-0.3729,-0.3813,-0.3759,-0.3806,-0.3807,-0.383,-0.3829,-0.3977,-0.3829,-0.3829,-0.3828,-0.3828,0,-0.3573,-0.3582,-0.3644,-0.3634,-0.3642,-0.3668,-0.3677,-0.3693,-0.3691,-0.3679,-0.3684,-0.3654,-0.3685,-0.3634,-0.3678,-0.364,-0.3649,-0.3644,-0.3646,-0.3652,-0.3596,-0.3688,-0.3828,-0.3844,-0.3651,-0.365,-0.3648,0,-0.3454,-0.3511,-0.3482,-0.3542,-0.3564,-0.3517,-0.3545,-0.3544,-0.3531,-0.3548,-0.3533,-0.3553,-0.3509,-0.3511,-0.3536,-0.3522,-0.3571,-0.3514,-0.3542,-0.3544,-0.3549,-0.3676,-0.3706,-0.3799,-0.3629,-0.3631,-0.3632,0,-0.336,-0.3344,-0.3357,-0.3359,-0.3352,-0.337,-0.3402,-0.3414,-0.3427,-0.3429,-0.3457,-0.3481,-0.345,-0.3454,-0.3431,-0.3458,-0.3537,-0.3421,-0.342,-0.3446,-0.3616,-0.3644,-0.366,-0.3515,-0.3517,-0.3519,-0.3617,0,-0.3217,-0.3241,-0.3273,-0.3277,-0.3286,-0.3321,-0.3294,-0.3307,-0.3284,-0.327,-0.3308,-0.3299,-0.3311,-0.332,-0.3297,-0.3367,-0.3352,-0.3318,-0.3269,-0.3351,-0.3384,-0.3396,-0.3224,-0.3222,-0.3221,-0.322,0,0,-0.3111,-0.3145,-0.3112,-0.3143,-0.3149,-0.31,-0.3141,-0.314,-0.3142,-0.3148,-0.3119,-0.3155,-0.3149,-0.3199,-0.3222,-0.3225,-0.3236,-0.3208,-0.3312,-0.3322,-0.3332,-0.3366,-0.338,-0.3217,-0.3217,-0.3216,-0.3216,0,-0.3054,-0.3049,-0.3089,-0.3087,-0.3084,-0.3067,-0.3077,-0.3065,-0.3058,-0.3094,-0.3054,-0.3073,-0.3101,-0.3102,-0.3106,-0.32,-0.3171,-0.3205,-0.3267,-0.3299,-0.3311,-0.3322,-0.3358,-0.3371,-0.3213,-0.3213,-0.3213,0,-0.2959,-0.295,-0.2966,-0.2977,-0.2975,-0.2998,-0.294,-0.2967,-0.2984,-0.2929,-0.2967,-0.2958,-0.2955,-0.3005,-0.3025,-0.3001,-0.3113,-0.3071,-0.3079,-0.3082,-0.3111,-0.3126,-0.3139,-0.2968,-0.2967,-0.2966,0,0,-0.2914,-0.2935,-0.2916,-0.2963,-0.2964,-0.2939,-0.2949,-0.2927,-0.2926,-0.2926,-0.2915,-0.2915,-0.2931,-0.2942,-0.2956,-0.3013,-0.3011,-0.3042,-0.3054,-0.3063,-0.3071,-0.3103,-0.3117,-0.2964,-0.2963,-0.2963,0,0,-0.2892,-0.2872,-0.2849,-0.29,-0.29,-0.2884,-0.2914,-0.2886,-0.2895,-0.2889,-0.2853,-0.2851,-0.2896,-0.2889,-0.2856,-0.2939,-0.289,-0.2898,-0.2942,-0.2956,-0.2967,-0.297,-0.2796,0,0,0,0,0,-0.282,-0.2874,-0.2853,-0.2858,-0.2872,-0.2896,-0.2897,-0.2869,-0.2836,-0.2861,-0.2847,-0.2813,-0.2864,-0.2833,-0.2838,-0.2877,-0.2928,-0.2934,-0.294,-0.3011,-0.3026,-0.3038,0,0,0,0,0,0,-0.2822,-0.2828,-0.2852,-0.2839,-0.2842,-0.2893,-0.2832,-0.2825,-0.2833,-0.2826,-0.2816,-0.2812,-0.2789,-0.2829,-0.2834,-0.2872,-0.2794,-0.293,-0.2936,-0.2941,-0.3016,-0.3028,-0.3039,0,0,0,0,0,-0.2823,-0.2827,-0.2857,-0.2838,-0.284,-0.2816,-0.2829,-0.2824,-0.2829,-0.2808,-0.2803,-0.2807,-0.2791,-0.2793,-0.2832,-0.287,-0.2791,-0.2792,-0.2934,-0.2938,-0.2942,-0.3022,0,0,0,0,0,0,-0.2824,-0.2822,-0.2857,-0.2856,-0.2816,-0.2812,-0.2811,-0.2822,-0.281,-0.2805,-0.2797,-0.2791,-0.2793,-0.2794,-0.2796,-0.2871,-0.2788,-0.279,-0.2791,-0.2937,-0.294,-0.2943,0,0,0,0,0,0,-0.282,-0.2823,-0.2856,-0.283,-0.2826,-0.281,-0.2808,-0.2837,-0.281,-0.2799,-0.2794,-0.2795,-0.279,-0.2795,-0.2796,-0.2842,-0.2785,-0.2787,-0.2789,-0.2789,-0.294,-0.2942,0,0,0,0,0,0,-0.282,-0.2823,-0.283,-0.2827,-0.2824,-0.2818,-0.2834,-0.2849,-0.2788,-0.28,-0.2782,-0.2779,-0.2792,-0.2792,-0.2797,-0.2842,-0.2842,-0.2785,-0.2787,-0.2788,-0.2788,0,0,0,0,0,0,0,-0.2821,-0.2812,-0.2859,-0.2825,-0.2822,-0.2853,-0.2853,-0.2853,-0.2787,-0.2785,-0.2782,-0.278,-0.2775,-0.2777,-0.2779,-0.2842,0,0,-0.2785,-0.2786,0,0,0,0,0,0,0,0,-0.281,-0.2812,-0.2859,-0.2859,-0.2858,-0.2853,-0.2853,-0.2853,-0.2787,-0.2785,-0.2783,-0.2781,-0.2775,-0.2777,-0.2779,0,0,0,0,0,0,0,0,0,0,0,0,0,0,0,-0.2859,-0.2859,0,-0.2853,-0.2853,-0.2853,-0.2787,-0.2785,-0.2783,-0.2782,-0.2776,-0.2777,-0.2778,0,0,0,0,0,0,0,0,0,0,0,0,0,0,0,0,0,0,0,0,0,0,0,0,0,0,0,0,0,0,0,0,0,0,0,0,0,0,0,0,0,0,0,0,0,0,0,0,0,0,0,0,0,0,0,0,0,0,0,0,0,0,0,0,0,0,0,0,0]}],[{"header":{"parameterUnit":"kt","parameterCategory":2,"dx":1,"dy":1,"la1":30.253999710083008,"la2":30.299108505249023,"lo1":-89.0895004272461,"lo2":-89.04439544677734,"nx":28,"ny":28,"refTime":"2022-10-01T21:00:00:Z","depth":0,"parameterNumber":2,"parameterNumberName":"V-component_of_WINDS"},"data":[-4.6827,-4.6866,-4.6895,-4.6952,-4.6987,-4.7031,-4.7055,-4.7089,-4.7123,-4.7177,-4.7212,-4.7242,-4.7285,-4.7332,-4.7371,-4.7383,-4.7398,-4.7393,-4.7408,-4.7408,-4.741,-4.7412,-4.7406,-4.7395,-4.7395,-4.7404,-4.7404,-4.7404,-4.6829,-4.6865,-4.6903,-4.6959,-4.6992,-4.7015,-4.706,-4.7086,-4.7123,-4.7164,-4.72,-4.7248,-4.7289,-4.7334,-4.7377,-4.7395,-4.7407,-4.7405,-4.7404,-4.7411,-4.7412,-4.7406,-4.7394,-4.7394,-4.7394,-4.7394,-4.7394,-4.7394,-4.6841,-4.6862,-4.6913,-4.6955,-4.699,-4.7027,-4.7052,-4.7089,-4.7125,-4.7175,-4.7199,-4.7241,-4.7285,-4.7349,-4.7376,-4.7409,-4.7416,-4.7421,-4.7423,-4.7424,-4.7422,-4.7409,-4.7417,-4.7417,-4.7417,-4.7417,-4.7417,0,-4.6858,-4.6881,-4.6919,-4.6965,-4.6996,-4.7034,-4.7073,-4.7089,-4.7142,-4.7169,-4.721,-4.7238,-4.7292,-4.7333,-4.7378,-4.7405,-4.743,-4.7434,-4.7438,-4.7429,-4.7415,-4.7425,-4.7428,-4.7433,-4.7434,-4.7434,-4.7434,-4.7434,-4.6874,-4.6895,-4.696,-4.6983,-4.7011,-4.7046,-4.7072,-4.7118,-4.7143,-4.7196,-4.7211,-4.7253,-4.7288,-4.7347,-4.7387,-4.7426,-4.7439,-4.7439,-4.7444,-4.7435,-4.7441,-4.744,-4.7444,-4.7437,-4.7436,-4.7436,-4.7436,0,-4.6881,-4.6926,-4.6966,-4.7028,-4.7044,-4.7063,-4.7115,-4.7136,-4.7169,-4.7204,-4.7214,-4.7265,-4.7303,-4.7343,-4.7393,-4.7413,-4.7445,-4.7454,-4.7431,-4.7436,-4.7441,-4.7441,-4.7448,-4.7452,-4.7462,-4.7462,-4.7462,0,-4.6913,-4.6937,-4.7003,-4.7024,-4.7053,-4.7098,-4.7125,-4.7156,-4.7195,-4.7223,-4.7257,-4.7282,-4.733,-4.736,-4.7389,-4.7421,-4.743,-4.7447,-4.7455,-4.7446,-4.7444,-4.7459,-4.746,-4.7469,-4.7469,-4.7469,-4.7469,0,-4.6921,-4.6982,-4.7016,-4.7038,-4.7104,-4.7118,-4.7146,-4.719,-4.7214,-4.7251,-4.7267,-4.7306,-4.7328,-4.7357,-4.7395,-4.7398,-4.7435,-4.7446,-4.7453,-4.7452,-4.7459,-4.7458,-4.7454,-4.7469,-4.7469,-4.7469,-4.7468,0,-4.6953,-4.6992,-4.7033,-4.7091,-4.7105,-4.7125,-4.7169,-4.7196,-4.7239,-4.726,-4.7289,-4.7316,-4.7346,-4.7356,-4.7398,-4.7392,-4.7411,-4.743,-4.7431,-4.7437,-4.7447,-4.7441,-4.7431,-4.7433,-4.7442,-4.7442,-4.7442,0,-4.6952,-4.7004,-4.7044,-4.7081,-4.7111,-4.7151,-4.7174,-4.7211,-4.724,-4.7269,-4.7301,-4.7332,-4.7347,-4.7363,-4.7378,-4.7412,-4.7419,-4.7411,-4.7452,-4.7453,-4.7443,-4.7434,-4.7423,-4.7429,-4.744,-4.744,-4.744,0,-4.6955,-4.7036,-4.7039,-4.7067,-4.7123,-4.7146,-4.7173,-4.7215,-4.7233,-4.7268,-4.7292,-4.7335,-4.7349,-4.7373,-4.7398,-4.7412,-4.7415,-4.7425,-4.7427,-4.7424,-4.7441,-4.7431,-4.7432,-4.7429,-4.743,-4.743,-4.7438,0,-4.7,-4.7031,-4.7042,-4.7096,-4.7121,-4.7145,-4.719,-4.721,-4.7234,-4.7264,-4.7298,-4.7335,-4.7375,-4.7385,-4.7406,-4.7425,-4.7428,-4.7441,-4.7454,-4.7447,-4.7451,-4.7452,-4.7445,-4.7445,-4.7446,-4.7446,0,0,-4.6988,-4.7033,-4.7074,-4.7102,-4.7126,-4.7165,-4.7187,-4.7214,-4.7266,-4.7281,-4.7289,-4.7355,-4.7384,-4.742,-4.7421,-4.7435,-4.7443,-4.7443,-4.7449,-4.7449,-4.745,-4.7453,-4.7454,-4.7447,-4.7447,-4.7447,-4.7448,0,-4.7015,-4.7046,-4.7067,-4.7098,-4.7145,-4.7176,-4.7181,-4.7232,-4.7252,-4.7285,-4.7315,-4.734,-4.7388,-4.7417,-4.7438,-4.744,-4.7461,-4.7448,-4.7436,-4.7453,-4.7452,-4.7452,-4.7455,-4.7455,-4.7449,-4.7449,-4.7449,0,-4.7029,-4.7068,-4.7082,-4.7137,-4.7167,-4.7195,-4.722,-4.7247,-4.7268,-4.7306,-4.7337,-4.7363,-4.7403,-4.743,-4.7443,-4.745,-4.7475,-4.7473,-4.7471,-4.7473,-4.7491,-4.749,-4.7489,-4.7498,-4.7498,-4.7498,0,0,-4.7045,-4.7073,-4.7128,-4.7146,-4.7163,-4.7208,-4.7226,-4.7252,-4.7289,-4.7303,-4.7337,-4.737,-4.74,-4.7418,-4.7447,-4.747,-4.7482,-4.7477,-4.7475,-4.7473,-4.7474,-4.7491,-4.749,-4.7498,-4.7498,-4.7498,0,0,-4.7052,-4.7118,-4.7135,-4.7162,-4.7197,-4.7251,-4.726,-4.7282,-4.7313,-4.7315,-4.7357,-4.7367,-4.7393,-4.7416,-4.7412,-4.7452,-4.7463,-4.7465,-4.7436,-4.7434,-4.7432,-4.7426,-4.7441,0,0,0,0,0,-4.7102,-4.711,-4.7126,-4.7137,-4.7203,-4.7243,-4.7251,-4.7287,-4.7296,-4.7303,-4.7335,-4.7355,-4.7423,-4.7421,-4.743,-4.7434,-4.7499,-4.7499,-4.7498,-4.7467,-4.7464,-4.7462,0,0,0,0,0,0,-4.7106,-4.712,-4.7126,-4.7179,-4.7195,-4.7243,-4.7265,-4.7275,-4.7296,-4.73,-4.7348,-4.7356,-4.7386,-4.7418,-4.7426,-4.7429,-4.7438,-4.7499,-4.7499,-4.7498,-4.7466,-4.7464,-4.7462,0,0,0,0,0,-4.711,-4.7121,-4.7219,-4.7179,-4.7193,-4.7243,-4.7265,-4.7274,-4.729,-4.7339,-4.7348,-4.7316,-4.7385,-4.7394,-4.7423,-4.7425,-4.7433,-4.7436,-4.7499,-4.7499,-4.7498,-4.7465,0,0,0,0,0,0,-4.7113,-4.7128,-4.7222,-4.7228,-4.7179,-4.7241,-4.7252,-4.7272,-4.7329,-4.7338,-4.7308,-4.7311,-4.7385,-4.7392,-4.7399,-4.7422,-4.7429,-4.7432,-4.7434,-4.7499,-4.7498,-4.7498,0,0,0,0,0,0,-4.7123,-4.7133,-4.7225,-4.7222,-4.7228,-4.7239,-4.7249,-4.7277,-4.7329,-4.7295,-4.7299,-4.7309,-4.7374,-4.739,-4.7396,-4.7438,-4.7426,-4.7429,-4.743,-4.7432,-4.7498,-4.7498,0,0,0,0,0,0,-4.7128,-4.7136,-4.7221,-4.7225,-4.723,-4.7293,-4.7265,-4.733,-4.7329,-4.7292,-4.7329,-4.733,-4.7372,-4.7378,-4.7393,-4.7434,-4.7437,-4.7426,-4.7428,-4.7429,-4.743,0,0,0,0,0,0,0,-4.7132,-4.7067,-4.7191,-4.7228,-4.7232,-4.7277,-4.7279,-4.728,-4.7329,-4.7329,-4.7329,-4.7329,-4.741,-4.7413,-4.7416,-4.743,0,0,-4.7426,-4.7427,0,0,0,0,0,0,0,0,-4.7064,-4.7066,-4.7191,-4.7192,-4.7193,-4.7278,-4.7279,-4.728,-4.7329,-4.7329,-4.7329,-4.7329,-4.7411,-4.7414,-4.7416,0,0,0,0,0,0,0,0,0,0,0,0,0,0,0,-4.7191,-4.7192,0,-4.7278,-4.7279,-4.728,-4.7329,-4.7329,-4.7329,-4.7329,-4.7412,-4.7414,-4.7416,0,0,0,0,0,0,0,0,0,0,0,0,0,0,0,0,0,0,0,0,0,0,0,0,0,0,0,0,0,0,0,0,0,0,0,0,0,0,0,0,0,0,0,0,0,0,0,0,0,0,0,0,0,0,0,0,0,0,0,0,0,0,0,0,0,0,0,0,0]}]]]